Погода в Сосновом

Россия / Республика Карелия     66°00′02″N   32°19′15″E
темп.,
°C
ветер,
м/с
пор.,
м/с
влажн.,
%
обл.,
%
осадки,
мм/ч
давл.,
гПа
погр.,
м
14 августа, вс
вс1400:00+11юз246910 0.0 101972
03:00+12юз3880100 0.1 1019338
06:00+12зюз310949 0.0 1018398
09:00+16з36684 0.0 1018558
12:00+19з355528 0.0 10171292
15:00+21з474399 0.0 10172147
18:00+20сз354535 0.0 10181734
21:00+15в257345 0.0 1019165
15 августа, пн
пн1500:00+11юв119135 0.0 102114
03:00+10юв119251 0.0 102112
06:00+11вюв228560 0.0 102262
09:00+16юв2364100 0.0 1022425
12:00+20ю344499 0.0 1021850
15:00+21ю255599 0.1 1020595
18:00+22ю1464100 0.3 1019388
21:00+16юв2390100 2.3 101975
16 августа, вт
вт1600:00+15ю1291100 0.8 101914
03:00+15юз2290100 0.8 102021
06:00+15ююз2286100 0.0 101935
09:00+19юз24716 0.0 1019198
12:00+24ююз34444 0.0 1019785
15:00+26ююз3439100 0.0 10181267
18:00+25ю23455 0.0 1018401
21:00+20ююв22625 0.0 101827
17 августа, ср
ср1700:00+18ююв22745 0.0 101821
03:00+17ююз23795 0.0 101851
06:00+17ю27805 0.0 1018139
09:00+22ююз376224 0.0 1017340
12:00+26ююз46463 0.0 1017856
15:00+28ююз47392 0.0 10162055
18:00+26ююз364650 0.0 1016654
21:00+22ю310633 0.0 1016286
18 августа, чт
чт1800:00+19ю3107616 0.0 1016233
03:00+18ю311811 0.0 1016252
06:00+19ю398150 0.0 1016289
09:00+22ююз477186 0.0 1017487
12:00+23юз3669100 0.0 1018625
15:00+24юз356176 0.1 1018821
18:00+24ю2565100 0.3 1018429
21:00+19юз1597100 8.8 1018178